This is the latest recevied weather packets stored in our database for station/object SV6GMP-10. If no packets are shown the sender has not sent any weather packets the latest 10 day(s).
| Time | Temp. | Humidity | Pressure | Rain* | Wind** | Luminosity | Snow |
|---|---|---|---|---|---|---|---|
| 1777881758 | 18.89° C | 54% | 1020.5 hPa | - | - | - | - |
| 1777879958 | 18.89° C | 56% | 1020.6 hPa | - | - | - | - |
| 1777879058 | 18.89° C | 57% | 1020.6 hPa | - | - | - | - |
| 1777878158 | 18.89° C | 58% | 1020.4 hPa | - | - | - | - |
| 1777877257 | 18.89° C | 60% | 1020.5 hPa | - | - | - | - |
| 1777876357 | 18.89° C | 60% | 1020.6 hPa | - | - | - | - |
| 1777875457 | 18.89° C | 61% | 1020.5 hPa | - | - | - | - |
| 1777874557 | 18.89° C | 63% | 1020.5 hPa | - | - | - | - |
| 1777873657 | 18.89° C | 63% | 1020.4 hPa | - | - | - | - |
| 1777872756 | 18.89° C | 66% | 1020.4 hPa | - | - | - | - |
| 1777871856 | 18.89° C | 63% | 1020.4 hPa | - | - | - | - |
| 1777870956 | 18.89° C | 61% | 1020.3 hPa | - | - | - | - |
| 1777870056 | 18.89° C | 61% | 1020.1 hPa | - | - | - | - |
| 1777869156 | 18.89° C | 60% | 1020.1 hPa | - | - | - | - |
| 1777868256 | 18.89° C | 60% | 1019.9 hPa | - | - | - | - |
| 1777867356 | 18.89° C | 60% | 1019.9 hPa | - | - | - | - |
| 1777865555 | 18.89° C | 60% | 1019.5 hPa | - | - | - | - |
| 1777847553 | 19.44° C | 53% | 1019.6 hPa | - | - | - | - |
| 1777846653 | 19.44° C | 53% | 1019.7 hPa | - | - | - | - |
| 1777843952 | 20° C | 52% | 1019.4 hPa | - | - | - | - |
| 1777843052 | 20° C | 51% | 1019.4 hPa | - | - | - | - |
| 1777842152 | 20° C | 51% | 1019.2 hPa | - | - | - | - |
| 1777840352 | 20° C | 50% | 1019.2 hPa | - | - | - | - |
| 1777839452 | 20° C | 50% | 1019.1 hPa | - | - | - | - |
| 1777837652 | 20° C | 49% | 1018.9 hPa | - | - | - | - |
* Rain since midnight (hover to see other rain measurements)
** Current wind speed in m/s (hover to see current wind gust speed)